Regional Weather Roundup
Issued by NWS

Current Version | Previous Version | Text Only | Print | Product List | Glossary On
Versions: 1 2 3 4 5 6 7 8 9 10 11 12 13 14 15 16 17 18 19 20 21 22 23 24 25 26 27 28 29 30 31 32 33 34 35 36 37 38 39 40 41 42 43 44 45 46 47 48 49 50
000
ASHW40 PHFO 280130
RWRHI

WEATHER ROUNDUP FOR HAWAII
NATIONAL WEATHER SERVICE HONOLULU HI
300 PM HST TUE JAN 27 2015

THIS IS AN AUTOMATED REPORT THAT HAS NOT BEEN QUALITY CONTROLLED.

NOTE..."FAIR" INDICATES FEW OR NO CLOUDS BELOW 12,000 FEET WITH NO
SIGNIFICANT WEATHER AND/OR OBSTRUCTIONS TO VISIBILITY.

* - THESE SITES REPORT LIMITED FIELDS

HIZ001>004-280200-
KAUAI-NIIHAU-

CITY           SKY/WX    TMP DP  RH WIND       PRES   REMARKS
LIHUE APT      PTSUNNY   77  62  59 E9        29.93F
PORT ALLEN*      N/A     79 N/A N/A E18G28      N/A
POIPU*           N/A     81 N/A N/A E6G14       N/A
PRINCEVILLE*     N/A     73 N/A N/A MISG        N/A
KOKOLE POINT*    N/A     77 N/A N/A MISG        N/A
MOLOAA DAIRY*  NOT AVBL
WAIMEA HTS*    NOT AVBL
PUU OPAE*      NOT AVBL
PUU LUA*       NOT AVBL
MAKAHA RIDGE*  NOT AVBL
$$

HIZ005>011-280200-
OAHU-

CITY           SKY/WX    TMP DP  RH WIND       PRES   REMARKS
HONOLULU       MOSUNNY   79  63  57 E9        29.89F
KALAELOA       CLOUDY    77  64  64 E7        29.91F
KANEOHE MCB    CLOUDY    79  65  62 NE9G17    29.91S
WHEELER FIELD  FAIR      77  62  59 E16       29.91F
BELLOWS*         N/A    N/A N/A N/A E15         N/A
KAHUKU*          N/A    N/A N/A N/A E8G17       N/A
WHEELER*       NOT AVBL
WAIANAE HARBOR NOT AVBL
DILLINGHAM*      N/A     81  64  57 MISG        N/A
KAHUKU TRN*      N/A    N/A N/A N/A E7G18       N/A
KAWAILOA*        N/A    N/A N/A N/A E12G18      N/A
KII*             N/A     77  66  69 E15G21      N/A
MAKUA RANGE*     N/A     79  63  57 NW3         N/A
OAHU FOREST NW NOT AVBL
SCHOFIELD BRK*   N/A     73  59  60 MISG        N/A
SCHOFIELD S*   NOT AVBL
WAIANAE VLY*   NOT AVBL
KUAOKALA*      NOT AVBL
HONOULIUULI*   NOT AVBL
MOKUOLOE IS*   NOT AVBL
PALEHUA*       NOT AVBL
WAIAWA PHB*    NOT AVBL
$$

HIZ012>013-280200-
MOLOKAI-

CITY           SKY/WX    TMP DP  RH WIND       PRES   REMARKS
MOLOKAI AIRPT  MOSUNNY   77  62  59 CALM      29.90F
KALAUPAPA      NOT AVBL
MAKAPULAPAI*   NOT AVBL
MOLOKAI 1*     NOT AVBL
PUU ALII*        N/A     64  57  79 SE2G9       N/A
$$

HIZ016-280200-
KAHOOLAWE-

CITY           SKY/WX    TMP DP  RH WIND       PRES   REMARKS
KAHOOLAWE*     NOT AVBL
HAKIOAWA*        N/A     75  62  64 MISG      30.31F
HONOKANAIA*      N/A     79  59  50 NE18G30     N/A
KANELOA*         N/A    N/A N/A N/A MISG      29.13F
KEALIALALO*    NOT AVBL
LUA MAKIKA*    NOT AVBL
$$

HIZ014>015-280200-
LANAI-

CITY           SKY/WX    TMP DP  RH WIND       PRES   REMARKS
LANAI CITY     CLOUDY    72  63  73 W6        29.95S
LANAI 1*       NOT AVBL
$$

HIZ017>028-280200-
MAUI-

CITY           SKY/WX    TMP DP  RH WIND       PRES   REMARKS
KAHULUI        MOSUNNY   80  63  55 E17G23    29.88F
KAPALUA-W MAUI MOSUNNY   77  63  61 NE14G23   29.90F
HANA AIRPORT   CLOUDY    75  63  64 SE6       29.94S
HANA*            N/A     77 N/A N/A E7G16       N/A
HALEAKALA SUMM   N/A     59  16  18 S8G20       N/A
MAALAEA BAY*   NOT AVBL
HALEAKALA*     NOT AVBL
KAUPO GAP*     NOT AVBL
KULA 1*          N/A    N/A N/A N/A W5          N/A
$$

HIZ023>026-280200-
BIG ISLAND OF HAWAII COAST AND LOWER SLOPES-

CITY           SKY/WX    TMP DP  RH WIND       PRES   REMARKS
KAILUA KONA    PTSUNNY   81  64  56 W14       29.86F
HILO           CLOUDY    77  62  59 E9        29.91F
HONOKAA*       NOT AVBL
KAWAIHAE MWT*    N/A     79 N/A N/A W7          N/A
KAWAIHAE*        N/A     77 N/A N/A W6          N/A
SOUTH POINT*     N/A     73 N/A N/A NE20G29     N/A
UPOLU AIRPORT*   N/A    N/A N/A N/A NE16G25     N/A
KAMUELA*       NOT AVBL
HAKALAU*         N/A     71  35  26 SE6G12      N/A
KALOKO-HONOKO*   N/A     81  64  57 W9        29.86S
PALI 2*          N/A     73  57  56 SW10G17     N/A
KEALAKOMO*       N/A     81  64  57 E21G30      N/A
KAUPULEHU*     NOT AVBL
KAPAPALA*        N/A     72  60  67 E3G14       N/A
LOWER KAHUKU*    N/A     64  59  82 E3G12       N/A
PUHE CS*         N/A     81  66  61 W3G10       N/A
PUHO CS*         N/A     81  65  57 W5G12       N/A
PTA KEAMUKU*     N/A     70  59  68 CALM        N/A
WAIKOLOA*      NOT AVBL
$$

HIZ027>028-280200-
BIG ISLAND OF HAWAII INTERIOR AND SUMMMITS-

CITY           SKY/WX    TMP DP  RH WIND       PRES   REMARKS
BRADSHAW FIELD SUNNY     68  54  61 W9        30.19F
MK VISITOR CEN NOT AVBL
MAUNA KEA*       N/A     45  10  24 N7G22       N/A
MAUNA LOA*       N/A    N/A N/A N/A MISG        N/A
MAUNA LOA 1*   NOT AVBL
PTA KIPUKA*      N/A     70  52  52 NW6G12      N/A
PTA RANGE 17*    N/A     66  54  63 NW10G16     N/A
PTA WEST*        N/A     68  55  64 N9G16       N/A
NENE CABIN*      N/A    N/A N/A N/A E10G18      N/A
AHUMOA*        NOT AVBL
PTA PORTABLE*  NOT AVBL
PUU MALI*      NOT AVBL
$$

HIC003-280200-
NORTHWEST ISLANDS-

CITY           SKY/WX    TMP DP  RH WIND       PRES   REMARKS
MIDWAY ISLAND  MOSUNNY   64  46  52 N12       30.18F
MIDWAY NOS*    NOT AVBL
FRENCH FRIGATE NOT AVBL
$$

PHZ110>124-180-280200-
BUOY REPORTS

STATION/POSITION TIME  TEMP    WIND        PRES    WAVE   SWELL
                       AIR SEA DIR/SP/G            HT/PER HT/DIR
                 (UTC) (F)     (DEG/KT/KT) (MB)    (FT/S) (FT/D)
BUOY 51001       NOT AVBL
BUOY 51101       0100   68 73  340/  6/  8 1014.1F   7/17   7/290
BUOY 51100       0100   72 74  120/ 12/ 16 1014.5F
BUOY 51003       0100   76 78   80/ 10/ 12 1012.2F   8/ 8   7
BUOY 51004       0029   75 78   60/ 17/ 21 1011.0F   8/ 8   7/ 60
BARBERS PT BUOY  NOT AVBL
WAIMEA BAY BUOY  0100      76                N/A     6/20   5/310
KAILUA BAY BUOY  0100      77                N/A     6/ 8   2/350
LANAI BUOY       0100      78                N/A     2/12   2/250
BARBERS PT 2     0100      77                N/A     5/20   2/290
PAUWELA MAUI     0100      76                N/A     7/11   5/340
HILO             0100      77                N/A     5/12   2/340
KANEOHE BAY BUOY 0100      75                N/A     5/11   2/340
HANALEI KAUAI    NOT AVBL
KAHULUI HARBOR   0100   76 76   60/ 13/ 16 1011.7F
HONOLULU HARBOR  0100   78 76  110/  5/  8 1012.1F
KILO NALU        NOT AVBL
HILO HARBOR      0100   81 76   90/  5/ 12 1012.4F
MOKUOLOE         0100      75              1012.6F
NAWILIWILI       NOT AVBL
WHOTS BUOY       NOT AVBL
BUOY 51028       NOT AVBL
$$

......................KEY........................................
  SKY/WX - SKY CONDITIONS/PRESENT WEATHER
  TMP    - TEMPERATURE IN FAHRENHEIT
  DWPT   - DEWPOINT IN FAHRENHEIT
  RH     - RELATIVE HUMIDITY IN PERCENT
  WIND   - DIRECTION AND SPEED /MPH FOR ISLANDS...KTS FOR BUOYS/
  PRES   - MEAN SEA LEVEL PRESSURE IN INCHES OF HG
  VSB    - VISIBILITY IN MILES
  HX     - HEAT INDEX
  WCI    - WIND CHILL INDEX
  VRB    - VARIABLE WIND DIRECTION
  N/A    - NOT AVAILABLE


USA.gov is the U.S. government's official web portal to all federal, state and local government web resources and services.